This demonstration page uses our WeatherBlox Daily Observations layout. Learn more.

Left ArrowRight Arrow

Hourly Observations for February 13, 2020

Temp ( °F °C ) Dew Point ( °F °C ) Humidity (%) Winds ( mph kmh ) Pressure ( in mb ) Visibility ( mi km ) Precip ( " mm )
12:51 am 00:51 Cloudy 36 2 34 1 93 93 VRB 5 7 29.74 1007 10 16 N/A
12:53 am 00:53 Cloudy 36 2.2 34 1.1 93 93 NNE 6 9 29.72 1007 10 16 N/A
1:53 am 01:53 Cloudy 35 1.7 33 0.6 93 93 VRB 3 6 29.77 1008 7 11 N/A
2:53 am 02:53 Cloudy with Mist and Fog 35 1.7 33 0.6 93 93 NE 5 7 29.73 1007 3 5 N/A
3:02 am 03:02 Cloudy with Mist and Fog 35 1.7 33 0.6 93 93 VRB 5 7 29.77 1008 4 6 N/A
3:51 am 03:51 Cloudy 36 2 34 1 93 93 N 3 6 29.76 1008 8 13 N/A
3:53 am 03:53 Cloudy 35 1.7 33 0.6 93 93 N 5 7 29.74 1007 7 11 N/A
4:53 am 04:53 Cloudy with Light Rain 34 1.1 33 0.6 97 97 NNW 7 11 29.75 1007 5 8 0.00 0.00
5:11 am 05:11 Cloudy with Light Rain 34 1.1 33 0.6 97 97 NW 6 9 29.78 1008 4 6 0.00 0.00
5:28 am 05:28 Cloudy with Light Rain 34 1.1 33 0.6 97 97 NNW 7 11 29.77 1008 3 4 0.02 0.51
5:39 am 05:39 Cloudy with Light Rain 34 1.1 33 0.6 97 97 NNW 6 9 29.78 1008 3 5 0.03 0.76
5:53 am 05:53 Cloudy with Light Rain 34 1.1 32 undefined 92 92 NNW 5 7 29.79 1009 3 5 0.04 1.02
6:28 am 06:28 Cloudy with Light Rain 33 0.6 32 undefined 96 96 NW 5 7 29.82 1010 6 10 0.01 0.25
6:53 am 06:53 Cloudy with Light Snow 33 0.6 32 undefined 96 96 NNW 5 7 29.82 1010 5 8 0.01 0.25
7:03 am 07:03 Cloudy with Light Snow 33 0.6 32 undefined 96 96 NW 3 6 29.84 1011 2 3 0.01 0.25
7:12 am 07:12 Cloudy with Light Snow 33 0.6 32 undefined 96 96 WNW 5 7 29.85 1011 2 2 0.02 0.51
7:42 am 07:42 Cloudy with Light Snow 33 0.6 31 -0.6 92 92 NW 6 9 29.86 1011 2 3 0.04 1.02
7:50 am 07:50 Cloudy with Light Snow 34 1 30 -1 87 87 NNW 7 11 29.85 1011 3 4 0.04 1.02
7:53 am 07:53 Cloudy with Light Snow 33 0.6 31 -0.6 92 92 N 8 13 29.83 1010 3 5 0.04 1.02
8:00 am 08:00 Cloudy with Light Snow 33 0.6 31 -0.6 92 92 NNW 7 11 29.85 1011 5 8 0.01 0.25
8:53 am 08:53 Cloudy 33 0.6 30 -1.1 89 89 NW 7 11 29.88 1012 9 14 0.01 0.25
9:29 am 09:29 Cloudy 33 0.6 30 -1.1 89 89 NW 8 13 29.92 1013 8 13 0.00 0.00
9:53 am 09:53 Cloudy 33 0.6 31 -0.6 92 92 WNW 10 17 29.93 1014 7 11 0.00 0.00
10:20 am 10:20 Cloudy 34 1.1 30 -1.1 85 85 NW 12 19 29.96 1015 7 11 N/A
10:53 am 10:53 Mostly Cloudy 35 1.7 31 -0.6 85 85 NW 13 20 29.96 1015 7 11 N/A
11:36 am 11:36 Cloudy 36 2.2 31 -0.6 82 82 WNW 10 17 30.00 1016 9 14 N/A
11:53 am 11:53 Cloudy 36 2.2 31 -0.6 82 82 W 10 17 29.99 1016 10 16 N/A
12:53 pm 12:53 Cloudy 36 2.2 31 -0.6 82 82 WNW 14 22 30.01 1016 10 16 N/A
1:53 pm 13:53 Cloudy 38 3.3 31 -0.6 76 76 W 9 15 30.01 1016 10 16 N/A
2:53 pm 14:53 Cloudy 38 3.3 31 -0.6 76 76 W 9 15 30.05 1018 10 16 N/A
3:10 pm 15:10 Cloudy with Light Rain 37 2.8 30 -1.1 76 76 W 15 24 30.07 1018 10 16 0.00 0.00
3:41 pm 15:41 Cloudy with Light Rain 36 2.2 32 undefined 86 86 WNW 14 22 30.09 1019 10 16 0.00 0.00
3:53 pm 15:53 Cloudy 35 1.7 31 -0.6 85 85 WNW 16 26 30.09 1019 9 14 0.00 0.00
4:19 pm 16:19 Cloudy 34 1.1 28 -2.2 79 79 WNW 14 22 30.12 1020 10 16 N/A
4:53 pm 16:53 Cloudy 33 0.6 27 -2.8 78 78 WNW 14 22 30.13 1020 10 16 N/A
5:10 pm 17:10 Cloudy 32 undefined 26 -3.3 79 79 WNW 14 22 30.16 1021 10 16 N/A
5:34 pm 17:34 Cloudy 30 -1.1 25 -3.9 82 82 WNW 16 26 30.19 1022 10 16 N/A
5:48 pm 17:48 Cloudy 30 -1 25 -4 80 80 WNW 15 24 30.20 1023 10 16 N/A
5:53 pm 17:53 Cloudy 29 -1.7 25 -3.9 85 85 WNW 17 28 30.19 1022 10 16 N/A
6:53 pm 18:53 Cloudy 27 -2.8 23 -5 85 85 WNW 12 19 30.22 1024 10 16 N/A
7:53 pm 19:53 Cloudy 25 -3.9 21 -6.1 85 85 WNW 13 20 30.26 1025 10 16 N/A
8:53 pm 20:53 Cloudy 24 -4.4 20 -6.7 84 84 NW 14 22 30.29 1026 10 16 N/A
9:41 pm 21:41 Cloudy 23 -5 17 -8.3 78 78 WNW 16 26 30.34 1027 10 16 N/A
9:53 pm 21:53 Cloudy with Light Snow 23 -5 17 -8.3 78 78 NW 16 26 30.32 1027 9 14 0.00 0.00
10:53 pm 22:53 Cloudy 20 -6.7 12 -11.1 71 71 WNW 18 30 30.36 1028 10 16 0.00 0.00
11:02 pm 23:02 Cloudy 21 -6.1 12 -11.1 68 68 WNW 17 28 30.39 1029 10 16 N/A
11:53 pm 23:53 Cloudy 20 -6.7 13 -10.6 74 74 WNW 13 20 30.38 1029 10 16 0.00 0.00

Powered by AerisWeather